Time,TemperatureF,DewpointF,PressureIn,WindDirection,WindDirectionDegrees,WindSpeedMPH,WindSpeedGustMPH,Humidity,HourlyPrecipIn,Conditions,Clouds,dailyrainin,SoftwareType,DateUTC
2013-06-11 00:02:00,75.0,72.0,29.97,WNW,282,0.0,9.0,91,0.00,,,0.01,,2013-06-11 05:02:00,
2013-06-11 00:12:00,75.0,72.0,29.97,West,281,0.0,1.0,91,0.00,,,0.01,,2013-06-11 05:12:00,
2013-06-11 00:22:00,75.0,72.0,29.97,West,281,0.0,1.0,91,0.00,,,0.01,,2013-06-11 05:22:00,
2013-06-11 00:32:00,75.0,73.0,29.97,West,281,0.0,1.0,92,0.00,,,0.01,,2013-06-11 05:32:00,
2013-06-11 00:42:00,75.0,73.0,29.98,West,281,0.0,1.0,92,0.00,,,0.01,,2013-06-11 05:42:00,
2013-06-11 00:52:00,75.0,73.0,29.98,West,281,0.0,1.0,92,0.00,,,0.01,,2013-06-11 05:52:00,
2013-06-11 01:02:00,75.0,73.0,29.98,West,281,0.0,2.0,92,0.00,,,0.01,,2013-06-11 06:02:00,
2013-06-11 01:12:00,75.0,73.0,29.97,West,281,0.0,2.0,92,0.00,,,0.01,,2013-06-11 06:12:00,
2013-06-11 01:22:00,75.0,73.0,29.97,West,281,0.0,2.0,92,0.00,,,0.01,,2013-06-11 06:22:00,
2013-06-11 01:32:00,76.0,74.0,29.97,SSE,157,0.0,3.0,93,0.00,,,0.01,,2013-06-11 06:32:00,
2013-06-11 01:42:00,76.0,74.0,29.98,SSE,157,0.0,3.0,93,0.00,,,0.01,,2013-06-11 06:42:00,
2013-06-11 01:52:00,76.0,74.0,29.98,SSE,157,0.0,3.0,93,0.00,,,0.01,,2013-06-11 06:52:00,
2013-06-11 02:02:00,75.0,73.0,29.97,SSE,157,0.0,3.0,93,0.00,,,0.01,,2013-06-11 07:02:00,
2013-06-11 02:12:00,75.0,73.0,29.97,SSE,157,0.0,3.0,93,0.00,,,0.01,,2013-06-11 07:12:00,
2013-06-11 02:22:00,75.0,73.0,29.97,SSE,157,0.0,3.0,93,0.00,,,0.01,,2013-06-11 07:22:00,
2013-06-11 02:32:00,75.0,73.0,29.98,SSE,157,0.0,3.0,94,0.00,,,0.01,,2013-06-11 07:32:00,
2013-06-11 02:42:00,74.0,72.0,29.98,SSE,157,0.0,3.0,94,0.00,,,0.01,,2013-06-11 07:42:00,
2013-06-11 02:52:00,74.0,72.0,29.98,SSE,157,0.0,3.0,94,0.00,,,0.01,,2013-06-11 07:52:00,
2013-06-11 03:02:00,74.0,72.0,29.98,SSE,157,0.0,3.0,94,0.00,,,0.01,,2013-06-11 08:02:00,
2013-06-11 03:12:00,74.0,72.0,29.98,SSE,157,0.0,3.0,94,0.00,,,0.01,,2013-06-11 08:12:00,
2013-06-11 03:22:00,74.0,72.0,29.98,SSE,157,0.0,3.0,94,0.00,,,0.01,,2013-06-11 08:22:00,
2013-06-11 03:32:00,74.0,72.0,29.98,SSE,157,0.0,3.0,95,0.00,,,0.01,,2013-06-11 08:32:00,
2013-06-11 03:42:00,74.0,72.0,29.98,SSE,157,0.0,3.0,95,0.00,,,0.01,,2013-06-11 08:42:00,
2013-06-11 03:52:00,74.0,72.0,29.98,SSE,157,0.0,3.0,95,0.00,,,0.01,,2013-06-11 08:52:00,
2013-06-11 04:02:00,74.0,72.0,29.98,SSE,157,0.0,3.0,95,0.00,,,0.01,,2013-06-11 09:02:00,
2013-06-11 04:12:00,74.0,72.0,29.98,SSE,157,0.0,3.0,95,0.00,,,0.01,,2013-06-11 09:12:00,
2013-06-11 04:22:00,74.0,72.0,29.98,SSE,157,0.0,3.0,95,0.00,,,0.01,,2013-06-11 09:22:00,
2013-06-11 04:33:00,73.0,71.0,29.99,SSE,157,0.0,3.0,95,0.00,,,0.01,,2013-06-11 09:33:00,
2013-06-11 04:43:00,73.0,71.0,30.00,SSE,157,0.0,3.0,95,0.00,,,0.01,,2013-06-11 09:43:00,
2013-06-11 04:53:00,73.0,71.0,30.00,SSE,157,0.0,3.0,95,0.00,,,0.01,,2013-06-11 09:53:00,
2013-06-11 05:03:00,73.0,71.0,30.00,SSE,157,0.0,3.0,95,0.00,,,0.01,,2013-06-11 10:03:00,
2013-06-11 05:12:00,73.0,71.0,30.00,SSE,157,0.0,3.0,95,0.00,,,0.01,,2013-06-11 10:12:00,
2013-06-11 05:22:00,73.0,71.0,30.00,SSE,157,0.0,3.0,95,0.00,,,0.01,,2013-06-11 10:22:00,
2013-06-11 05:33:00,73.0,71.0,30.01,SSE,157,0.0,3.0,95,0.00,,,0.01,,2013-06-11 10:33:00,
2013-06-11 05:42:00,73.0,71.0,30.01,SSE,157,0.0,3.0,95,0.00,,,0.01,,2013-06-11 10:42:00,
2013-06-11 05:52:00,73.0,71.0,30.01,SSE,157,0.0,3.0,95,0.00,,,0.01,,2013-06-11 10:52:00,
2013-06-11 06:02:00,73.0,71.0,30.02,SSE,157,0.0,3.0,95,0.00,,,0.01,,2013-06-11 11:02:00,
2013-06-11 06:12:00,73.0,71.0,30.02,SSE,157,0.0,3.0,95,0.00,,,0.01,,2013-06-11 11:12:00,
2013-06-11 06:22:00,73.0,71.0,30.02,SSE,157,0.0,3.0,95,0.00,,,0.01,,2013-06-11 11:22:00,
2013-06-11 06:32:00,73.0,72.0,30.03,SSE,157,0.0,3.0,96,0.00,,,0.00,,2013-06-11 11:32:00,
2013-06-11 06:41:00,73.0,72.0,30.03,SSE,157,0.0,3.0,96,0.00,,,0.00,,2013-06-11 11:41:00,
2013-06-11 06:52:00,73.0,72.0,30.03,SSE,157,0.0,3.0,96,0.00,,,0.00,,2013-06-11 11:52:00,
2013-06-11 07:02:00,73.0,72.0,30.04,SSE,157,0.0,3.0,97,0.00,,,0.00,,2013-06-11 12:02:00,
2013-06-11 07:12:00,74.0,73.0,30.03,SSW,202,0.0,3.0,97,0.00,,,0.00,,2013-06-11 12:12:00,
2013-06-11 07:22:00,74.0,73.0,30.03,SSW,202,0.0,3.0,97,0.00,,,0.00,,2013-06-11 12:22:00,
2013-06-11 07:32:00,75.0,74.0,30.04,WSW,255,0.0,3.0,98,0.00,,,0.00,,2013-06-11 12:32:00,
2013-06-11 07:42:00,75.0,74.0,30.05,WSW,255,0.0,3.0,97,0.00,,,0.00,,2013-06-11 12:42:00,
2013-06-11 07:52:00,75.0,74.0,30.05,WSW,255,0.0,3.0,97,0.00,,,0.00,,2013-06-11 12:52:00,
2013-06-11 08:02:00,76.0,75.0,30.05,WSW,255,0.0,3.0,98,0.00,,,0.00,,2013-06-11 13:02:00,
2013-06-11 08:12:00,76.0,75.0,30.06,West,265,0.0,3.0,98,0.00,,,0.00,,2013-06-11 13:12:00,
2013-06-11 08:22:00,76.0,75.0,30.06,West,265,0.0,3.0,98,0.00,,,0.00,,2013-06-11 13:22:00,
2013-06-11 08:32:00,77.0,76.0,30.06,West,276,0.0,4.0,98,0.00,,,0.00,,2013-06-11 13:32:00,
2013-06-11 08:42:00,77.0,76.0,30.06,NW,307,1.0,4.0,97,0.00,,,0.00,,2013-06-11 13:42:00,
2013-06-11 08:52:00,77.0,76.0,30.06,NW,307,1.0,4.0,97,0.00,,,0.00,,2013-06-11 13:52:00,
2013-06-11 09:02:00,78.0,77.0,30.07,West,276,0.0,4.0,96,0.00,,,0.00,,2013-06-11 14:02:00,
2013-06-11 09:12:00,78.0,77.0,30.07,West,276,0.0,4.0,96,0.00,,,0.00,,2013-06-11 14:12:00,
2013-06-11 09:22:00,78.0,76.0,30.06,NW,309,0.0,4.0,95,0.00,,,0.00,,2013-06-11 14:22:00,
2013-06-11 09:32:00,80.0,77.0,30.06,SSE,167,0.0,5.0,92,0.00,,,0.00,,2013-06-11 14:32:00,
2013-06-11 09:42:00,82.0,78.0,30.06,NW,310,0.0,5.0,88,0.00,,,0.00,,2013-06-11 14:42:00,
2013-06-11 09:52:00,82.0,78.0,30.06,NW,310,0.0,5.0,88,0.00,,,0.00,,2013-06-11 14:52:00,
2013-06-11 10:02:00,83.0,78.0,30.06,NNW,342,1.0,7.0,85,0.00,,,0.00,,2013-06-11 15:02:00,
2013-06-11 10:12:00,85.0,79.0,30.05,West,263,0.0,7.0,82,0.00,,,0.00,,2013-06-11 15:12:00,
2013-06-11 10:22:00,85.0,79.0,30.05,West,263,0.0,7.0,82,0.00,,,0.00,,2013-06-11 15:22:00,
2013-06-11 10:33:00,86.0,78.0,30.05,West,277,1.0,7.0,77,0.00,,,0.00,,2013-06-11 15:33:00,
2013-06-11 10:42:00,87.0,78.0,30.05,WNW,300,1.0,7.0,75,0.00,,,0.00,,2013-06-11 15:42:00,
2013-06-11 10:53:00,87.0,78.0,30.05,WNW,300,1.0,7.0,75,0.00,,,0.00,,2013-06-11 15:53:00,
2013-06-11 11:02:00,87.0,77.0,30.06,West,280,0.0,7.0,73,0.00,,,0.00,,2013-06-11 16:02:00,
2013-06-11 11:12:00,87.0,77.0,30.06,West,280,0.0,7.0,73,0.00,,,0.00,,2013-06-11 16:12:00,
2013-06-11 11:22:00,88.0,78.0,30.06,West,259,1.0,7.0,72,0.00,,,0.00,,2013-06-11 16:22:00,
2013-06-11 11:32:00,88.0,77.0,30.06,WSW,257,0.0,7.0,70,0.00,,,0.00,,2013-06-11 16:32:00,
2013-06-11 11:42:00,88.0,76.0,30.06,NW,323,2.0,7.0,68,0.00,,,0.00,,2013-06-11 16:42:00,
2013-06-11 11:52:00,88.0,76.0,30.06,NW,323,2.0,7.0,68,0.00,,,0.00,,2013-06-11 16:52:00,
2013-06-11 12:02:00,88.0,77.0,30.05,North,353,1.0,7.0,69,0.00,,,0.00,,2013-06-11 17:02:00,
2013-06-11 12:12:00,88.0,77.0,30.05,North,353,1.0,7.0,69,0.00,,,0.00,,2013-06-11 17:12:00,
2013-06-11 12:22:00,89.0,76.0,30.05,NW,307,0.0,7.0,65,0.00,,,0.00,,2013-06-11 17:22:00,
2013-06-11 12:32:00,90.0,76.0,30.05,WSW,245,2.0,7.0,63,0.00,,,0.00,,2013-06-11 17:32:00,
2013-06-11 12:43:00,89.0,76.0,30.05,SW,228,1.0,7.0,66,0.00,,,0.00,,2013-06-11 17:43:00,
2013-06-11 12:52:00,89.0,76.0,30.05,SW,228,1.0,7.0,66,0.00,,,0.00,,2013-06-11 17:52:00,
2013-06-11 13:02:00,90.0,75.0,30.05,West,270,2.0,7.0,61,0.00,,,0.00,,2013-06-11 18:02:00,
2013-06-11 13:12:00,90.0,75.0,30.05,West,266,1.0,7.0,61,0.00,,,0.00,,2013-06-11 18:12:00,
2013-06-11 13:22:00,90.0,75.0,30.05,West,266,1.0,7.0,61,0.00,,,0.00,,2013-06-11 18:22:00,
2013-06-11 13:32:00,91.0,76.0,30.04,WNW,282,0.0,7.0,61,0.00,,,0.00,,2013-06-11 18:32:00,
2013-06-11 13:42:00,91.0,73.0,30.03,WSW,247,2.0,7.0,56,0.00,,,0.00,,2013-06-11 18:42:00,
2013-06-11 13:52:00,91.0,73.0,30.03,WSW,247,2.0,7.0,56,0.00,,,0.00,,2013-06-11 18:52:00,
2013-06-11 14:02:00,92.0,74.0,30.03,SW,228,0.0,7.0,56,0.00,,,0.00,,2013-06-11 19:02:00,
2013-06-11 14:12:00,92.0,74.0,30.03,SW,228,0.0,7.0,56,0.00,,,0.00,,2013-06-11 19:12:00,
2013-06-11 14:22:00,92.0,75.0,30.03,NNW,332,1.0,7.0,57,0.00,,,0.00,,2013-06-11 19:22:00,
2013-06-11 14:32:00,92.0,74.0,30.03,NW,311,0.0,7.0,56,0.00,,,0.00,,2013-06-11 19:32:00,
2013-06-11 14:42:00,93.0,74.0,30.02,WSW,251,0.0,7.0,54,0.00,,,0.00,,2013-06-11 19:42:00,
2013-06-11 14:52:00,93.0,74.0,30.02,WSW,251,0.0,7.0,54,0.00,,,0.00,,2013-06-11 19:52:00,
2013-06-11 15:02:00,93.0,73.0,30.02,West,266,0.0,7.0,53,0.00,,,0.00,,2013-06-11 20:02:00,
2013-06-11 15:12:00,93.0,73.0,30.02,West,266,0.0,7.0,53,0.00,,,0.00,,2013-06-11 20:12:00,
2013-06-11 15:22:00,92.0,73.0,30.02,SSW,199,0.0,7.0,54,0.00,,,0.00,,2013-06-11 20:22:00,
2013-06-11 15:32:00,92.0,73.0,30.01,West,261,0.0,7.0,54,0.00,,,0.00,,2013-06-11 20:32:00,
2013-06-11 15:42:00,92.0,73.0,30.01,West,261,0.0,7.0,54,0.00,,,0.00,,2013-06-11 20:42:00,
2013-06-11 15:52:00,94.0,74.0,30.01,NW,310,1.0,7.0,53,0.00,,,0.00,,2013-06-11 20:52:00,
2013-06-11 16:02:00,95.0,73.0,30.00,West,277,2.0,9.0,50,0.00,,,0.00,,2013-06-11 21:02:00,
2013-06-11 16:12:00,95.0,73.0,30.00,West,277,2.0,9.0,50,0.00,,,0.00,,2013-06-11 21:12:00,
2013-06-11 16:22:00,94.0,74.0,30.00,NW,310,0.0,9.0,52,0.00,,,0.00,,2013-06-11 21:22:00,
2013-06-11 16:33:00,94.0,74.0,30.00,WSW,245,0.0,9.0,53,0.00,,,0.00,,2013-06-11 21:33:00,
2013-06-11 16:42:00,95.0,73.0,30.00,West,273,0.0,9.0,50,0.00,,,0.00,,2013-06-11 21:42:00,
2013-06-11 16:53:00,95.0,73.0,30.00,West,273,0.0,9.0,50,0.00,,,0.00,,2013-06-11 21:53:00,
2013-06-11 17:03:00,95.0,73.0,30.00,NW,317,0.0,9.0,49,0.00,,,0.00,,2013-06-11 22:03:00,
2013-06-11 17:12:00,94.0,74.0,29.99,WSW,253,0.0,9.0,53,0.00,,,0.00,,2013-06-11 22:12:00,
2013-06-11 17:22:00,94.0,74.0,29.99,WSW,253,0.0,9.0,53,0.00,,,0.00,,2013-06-11 22:22:00,
2013-06-11 17:32:00,95.0,73.0,29.98,West,271,0.0,9.0,50,0.00,,,0.00,,2013-06-11 22:32:00,
2013-06-11 17:42:00,95.0,73.0,29.98,West,271,0.0,9.0,50,0.00,,,0.00,,2013-06-11 22:42:00,
2013-06-11 17:52:00,93.0,74.0,29.98,West,271,0.0,9.0,55,0.00,,,0.00,,2013-06-11 22:52:00,
2013-06-11 18:02:00,92.0,76.0,29.98,North,357,0.0,9.0,59,0.00,,,0.00,,2013-06-11 23:02:00,
2013-06-11 18:12:00,92.0,74.0,29.98,WNW,290,0.0,9.0,56,0.00,,,0.00,,2013-06-11 23:12:00,
2013-06-11 18:22:00,92.0,74.0,29.98,WNW,290,0.0,9.0,56,0.00,,,0.00,,2013-06-11 23:22:00,
2013-06-11 18:32:00,91.0,76.0,29.98,West,272,0.0,9.0,61,0.00,,,0.00,,2013-06-11 23:32:00,
2013-06-11 18:42:00,89.0,75.0,29.98,SE,136,0.0,9.0,64,0.00,,,0.00,,2013-06-11 23:42:00,
2013-06-11 18:52:00,89.0,75.0,29.98,SE,136,0.0,9.0,64,0.00,,,0.00,,2013-06-11 23:52:00,
2013-06-11 19:02:00,88.0,76.0,29.98,SE,136,0.0,9.0,67,0.00,,,0.00,,2013-06-12 00:02:00,
2013-06-11 19:12:00,87.0,75.0,29.98,SE,136,0.0,9.0,68,0.00,,,0.00,,2013-06-12 00:12:00,
2013-06-11 19:22:00,87.0,75.0,29.98,SE,136,0.0,9.0,68,0.00,,,0.00,,2013-06-12 00:22:00,
2013-06-11 19:32:00,86.0,75.0,29.98,SE,136,0.0,9.0,70,0.00,,,0.00,,2013-06-12 00:32:00,
2013-06-11 19:42:00,86.0,75.0,29.98,SE,136,0.0,9.0,70,0.00,,,0.00,,2013-06-12 00:42:00,
2013-06-11 19:52:00,85.0,75.0,29.98,SE,136,0.0,9.0,72,0.00,,,0.00,,2013-06-12 00:52:00,
2013-06-11 20:02:00,83.0,73.0,29.98,SE,136,0.0,9.0,73,0.00,,,0.00,,2013-06-12 01:02:00,
2013-06-11 20:12:00,83.0,74.0,29.98,SE,136,0.0,9.0,74,0.00,,,0.00,,2013-06-12 01:12:00,
2013-06-11 20:22:00,83.0,74.0,29.98,SE,136,0.0,9.0,74,0.00,,,0.00,,2013-06-12 01:22:00,
2013-06-11 20:32:00,82.0,74.0,29.98,SE,136,0.0,9.0,76,0.00,,,0.00,,2013-06-12 01:32:00,
2013-06-11 20:42:00,82.0,74.0,29.98,SE,136,0.0,9.0,76,0.00,,,0.00,,2013-06-12 01:42:00,
2013-06-11 20:52:00,81.0,73.0,29.99,SE,136,0.0,9.0,78,0.00,,,0.00,,2013-06-12 01:52:00,
2013-06-11 21:02:00,80.0,73.0,29.99,SE,136,0.0,9.0,79,0.00,,,0.00,,2013-06-12 02:02:00,
2013-06-11 21:12:00,80.0,73.0,30.00,SE,136,0.0,9.0,79,0.00,,,0.00,,2013-06-12 02:12:00,
2013-06-11 21:22:00,80.0,73.0,30.00,SE,136,0.0,9.0,79,0.00,,,0.00,,2013-06-12 02:22:00,
2013-06-11 21:32:00,79.0,73.0,30.00,SE,136,0.0,9.0,81,0.00,,,0.00,,2013-06-12 02:32:00,
2013-06-11 21:42:00,79.0,73.0,30.01,SE,136,0.0,9.0,82,0.00,,,0.00,,2013-06-12 02:42:00,
2013-06-11 21:52:00,79.0,73.0,30.01,SE,136,0.0,9.0,82,0.00,,,0.00,,2013-06-12 02:52:00,
2013-06-11 22:02:00,78.0,73.0,30.01,SE,136,0.0,9.0,85,0.00,,,0.00,,2013-06-12 03:02:00,
2013-06-11 22:12:00,78.0,74.0,30.01,SE,136,0.0,9.0,87,0.00,,,0.00,,2013-06-12 03:12:00,
2013-06-11 22:22:00,78.0,74.0,30.01,SE,136,0.0,9.0,87,0.00,,,0.00,,2013-06-12 03:22:00,
2013-06-11 22:32:00,78.0,73.0,30.01,SE,136,0.0,9.0,86,0.00,,,0.00,,2013-06-12 03:32:00,
2013-06-11 22:42:00,77.0,74.0,30.01,SE,136,0.0,9.0,89,0.00,,,0.00,,2013-06-12 03:42:00,
2013-06-11 22:53:00,77.0,74.0,30.01,SE,136,0.0,9.0,89,0.00,,,0.00,,2013-06-12 03:53:00,
2013-06-11 23:03:00,77.0,73.0,30.02,SE,136,0.0,9.0,88,0.00,,,0.00,,2013-06-12 04:03:00,
2013-06-11 23:13:00,77.0,73.0,30.02,SE,136,0.0,9.0,88,0.00,,,0.00,,2013-06-12 04:13:00,
2013-06-11 23:23:00,77.0,73.0,30.02,SE,136,0.0,9.0,88,0.00,,,0.00,,2013-06-12 04:23:00,
2013-06-11 23:33:00,76.0,73.0,30.02,SE,136,0.0,9.0,89,0.00,,,0.00,,2013-06-12 04:33:00,
2013-06-11 23:42:00,76.0,73.0,30.02,SE,136,0.0,9.0,91,0.00,,,0.00,,2013-06-12 04:42:00,
2013-06-11 23:52:00,76.0,73.0,30.02,SE,136,0.0,9.0,91,0.00,,,0.00,,2013-06-12 04:52:00,